Back to catalog

YAOGAN 19

AliveMilitarySSO
NORAD 39410·PAYLOAD·🇨🇳 China

Launched Nov 20, 2013 from Taiyuan Satellite Launch Center

Loading…

Next Passes (next 24 hours)

TLE

FreshSource: Space-Track

Epoch: Sep 14, 2026, 14:19 UTC

1 39410U 13065A   26257.59718484  .00000279  00000-0  85141-3 0  9990
2 39410 100.1233 230.0454 0008654 240.9582 119.0665 13.15586868615405

Track YAOGAN 19 in real time with AllMySat

Download on the App Store